Project,Study,Ord_Occ,Event_Num,Cast_ID,Date_Time_UTC,Date_Time_PST,Lat_Dec,Lon_Dec,Sta_ID,Line,Sta,Depth,Pressure,PrQ,Temp1,Temp1Q,Temp2,Temp2Q,TempAve,Salt1,Salt1Q,Salt1_Corr,Salt2,Salt2Q,Salt2_Corr,SaltAve_Corr,Ox1,Ox1Q,Ox1_CruiseCorr,Ox1_StaCorr,Ox2,Ox2Q,Ox2_CruiseCorr,Ox2_StaCorr,OxAve_StaCorr,Ox1uM,Ox1uM_CruiseCorr,Ox1uM_StaCorr,Ox2uM,Ox2uM_CruiseCorr,Ox2uM_StaCorr,OxAveuM_StaCorr,FluorV,FluorQ,EstChl_CruiseCorr,EstChl_StaCorr,ISUSV,ISUSQ,EstNO3_CruiseCorr,EstNO3_StaCorr,SigThetaTS1,SigThetaTS1Q,SigThetaTS2,SigThetaTS2Q,BAT,XMiss,TransQ,pH,pHQ,SPAR,SPARQ,PAR,PARQ,PoT1,PoT2,DynHt,SVA,OxSat1,OxSat2,BTL_Depth,BTL_Temp,SaltB,OxB,OxBuM,Chl-a,Phaeo,NO3,NO2,NH4,PO4,SIL
CalCOFI,2105SH,044,,2105_044u,13-May-2021 20:35:26,13-May-2021 12:35:26,33.74210,-120.41191,083.3 055.0,083.3,055.0,508.000,512.273,,6.2853,,6.2837,,6.2845,34.3095,,34.3107,34.3098,,34.3117,34.3112,0.2850,,0.3642,0.3866,0.2921,,0.3620,0.3883,0.3875,12.395,15.4565,16.2026,12.701,18.5151,16.2946,16.2486,0.0361,,,,0.5922,,0.0000,,26.9764,,26.9768,,,,,,,,,,,6.2395,6.2379,0.7867,114.545,4.134,4.236,,,,,,,,,,,,
CalCOFI,2105SH,044,,2105_044u,13-May-2021 20:35:53,13-May-2021 12:35:53,33.74206,-120.41194,083.3 055.0,083.3,055.0,507.000,511.263,,6.2728,,6.2728,,6.2728,34.3108,,34.3120,34.3108,,34.3127,34.3124,0.2820,,0.3610,0.3834,0.2892,,0.3590,0.3853,0.3844,12.263,15.3185,16.0648,12.576,18.3726,16.1658,16.1153,0.0359,,,,0.5904,,0.0000,,26.9790,,26.9790,,,,,,,,,,,6.2272,6.2272,0.7895,114.272,4.089,4.194,507,6.273,34.3075,0.429,18.66,,,39.23,0.00,0.62,3.22,75.16
CalCOFI,2105SH,044,,2105_044u,13-May-2021 20:36:16,13-May-2021 12:36:16,33.74201,-120.41196,083.3 055.0,083.3,055.0,506.000,510.253,,6.2800,,6.2786,,6.2793,34.3096,,34.3108,34.3104,,34.3123,34.3116,0.2901,,0.3695,0.3919,0.2953,,0.3653,0.3916,0.3918,12.613,15.6844,16.4302,12.840,18.7506,16.4378,16.4340,0.0362,,,,0.5902,,0.0000,,26.9771,,26.9779,,,,,,,,,,,6.2344,6.2331,0.7928,114.440,4.206,4.282,,,,,,,,,,,,
CalCOFI,2105SH,044,,2105_044u,13-May-2021 20:36:16,13-May-2021 12:36:16,33.74200,-120.41196,083.3 055.0,083.3,055.0,505.000,509.244,,6.2837,,6.2808,,6.2823,34.3093,,34.3105,34.3104,,34.3123,34.3114,0.2879,,0.3672,0.3896,0.2972,,0.3672,0.3936,0.3916,12.522,15.5893,16.3352,12.923,18.6523,16.5233,16.4293,0.0362,,,,0.5902,,0.0000,,26.9764,,26.9777,,,,,,,,,,,6.2383,6.2353,0.7928,114.500,4.176,4.310,,,,,,,,,,,,
CalCOFI,2105SH,044,,2105_044u,13-May-2021 20:36:17,13-May-2021 12:36:17,33.74200,-120.41196,083.3 055.0,083.3,055.0,504.000,508.234,,6.2887,,6.2832,,6.2860,34.3090,,34.3102,34.3104,,34.3123,34.3113,0.2854,,0.3646,0.3870,0.2926,,0.3625,0.3888,0.3879,12.413,15.4754,16.2214,12.722,18.5346,16.3162,16.2688,0.0353,,,,0.5903,,0.0000,,26.9755,,26.9773,,,,,,,,,,,6.2433,6.2378,0.7928,114.574,4.140,4.243,,,,,,,,,,,,
CalCOFI,2105SH,044,,2105_044u,13-May-2021 20:36:18,13-May-2021 12:36:18,33.74200,-120.41196,083.3 055.0,083.3,055.0,503.000,507.224,,6.2917,,6.2850,,6.2884,34.3094,,34.3106,34.3101,,34.3120,34.3113,0.2850,,0.3642,0.3866,0.2913,,0.3611,0.3875,0.3871,12.393,15.4544,16.2006,12.669,18.5130,16.2616,16.2311,0.0361,,,,0.5903,,0.0000,,26.9754,,26.9769,,,,,,,,,,,6.2463,6.2397,0.7928,114.572,4.134,4.225,,,,,,,,,,,,
CalCOFI,2105SH,044,,2105_044u,13-May-2021 20:36:19,13-May-2021 12:36:19,33.74200,-120.41196,083.3 055.0,083.3,055.0,502.000,506.215,,6.2909,,6.2894,,6.2902,34.3093,,34.3105,34.3100,,34.3119,34.3112,0.2849,,0.3640,0.3865,0.2912,,0.3610,0.3874,0.3870,12.392,15.4534,16.1995,12.666,18.5119,16.2585,16.2290,0.0361,,,,0.5904,,0.0000,,26.9754,,26.9761,,,,,,,,,,,6.2457,6.2442,0.7928,114.556,4.133,4.225,,,,,,,,,,,,
CalCOFI,2105SH,044,,2105_044u,13-May-2021 20:36:20,13-May-2021 12:36:20,33.74200,-120.41196,083.3 055.0,083.3,055.0,501.000,505.205,,6.2957,,6.2922,,6.2940,34.3086,,34.3098,34.3096,,34.3115,34.3107,0.2849,,0.3640,0.3865,0.2912,,0.3610,0.3874,0.3870,12.388,15.4492,16.1953,12.663,18.5076,16.2554,16.2254,0.0366,,,,0.5906,,0.0000,,26.9742,,26.9755,,,,,,,,,,,6.2506,6.2471,0.7928,114.662,4.133,4.224,,,,,,,,,,,,
CalCOFI,2105SH,044,,2105_044u,13-May-2021 20:36:20,13-May-2021 12:36:20,33.74200,-120.41197,083.3 055.0,083.3,055.0,500.000,504.196,,6.2970,,6.2929,,6.2950,34.3090,,34.3102,34.3098,,34.3117,34.3110,0.2848,,0.3639,0.3864,0.2912,,0.3610,0.3874,0.3869,12.386,15.4471,16.1933,12.663,18.5054,16.2554,16.2244,0.0366,,,,0.5907,,0.0000,,26.9744,,26.9755,,,,,,,,,,,6.2519,6.2479,0.7928,114.634,4.132,4.224,,,,,,,,,,,,
CalCOFI,2105SH,044,,2105_044u,13-May-2021 20:36:21,13-May-2021 12:36:21,33.74200,-120.41198,083.3 055.0,083.3,055.0,499.000,503.186,,6.3139,,6.3034,,6.3087,34.3062,,34.3074,34.3093,,34.3112,34.3093,0.2859,,0.3651,0.3875,0.2990,,0.3691,0.3954,0.3915,12.434,15.4973,16.2434,13.004,18.5573,16.6068,16.4251,0.0366,,,,0.5909,,0.0000,,26.9700,,26.9738,,,,,,,,,,,6.2689,6.2584,0.7928,115.052,4.150,4.339,,,,,,,,,,,,
CalCOFI,2105SH,044,,2105_044u,13-May-2021 20:36:23,13-May-2021 12:36:23,33.74200,-120.41198,083.3 055.0,083.3,055.0,498.000,502.176,,6.3168,,6.3173,,6.3171,34.3081,,34.3093,34.3080,,34.3099,34.3096,0.2945,,0.3741,0.3965,0.3009,,0.3711,0.3974,0.3970,12.806,15.8862,16.6317,13.083,18.9590,16.6882,16.6600,0.0366,,,,0.5911,,0.0000,,26.9711,,26.9709,,,,,,,,,,,6.2719,6.2724,0.7928,114.938,4.274,4.367,,,,,,,,,,,,
CalCOFI,2105SH,044,,2105_044u,13-May-2021 20:36:23,13-May-2021 12:36:23,33.74199,-120.41198,083.3 055.0,083.3,055.0,497.000,501.167,,6.3119,,6.3212,,6.3166,34.3080,,34.3092,34.3068,,34.3087,34.3090,0.2919,,0.3714,0.3938,0.3013,,0.3715,0.3978,0.3958,12.692,15.7670,16.5127,13.103,18.8359,16.7088,16.6108,0.0357,,,,0.5914,,0.0000,,26.9716,,26.9695,,,,,,,,,,,6.2671,6.2763,0.7928,114.866,4.236,4.374,,,,,,,,,,,,
CalCOFI,2105SH,044,,2105_044u,13-May-2021 20:36:24,13-May-2021 12:36:24,33.74198,-120.41198,083.3 055.0,083.3,055.0,496.000,500.157,,6.3337,,6.3475,,6.3406,34.3037,,34.3049,34.3054,,34.3073,34.3061,0.2936,,0.3731,0.3956,0.3070,,0.3774,0.4037,0.3997,12.768,15.8465,16.5920,13.351,18.9180,16.9643,16.7782,0.0366,,,,0.5916,,0.0000,,26.9654,,26.9649,,,,,,,,,,,6.2889,6.3027,0.7928,115.463,4.263,4.459,,,,,,,,,,,,
CalCOFI,2105SH,044,,2105_044u,13-May-2021 20:36:25,13-May-2021 12:36:25,33.74198,-120.41198,083.3 055.0,083.3,055.0,495.000,499.148,,6.3494,,6.3495,,6.3495,34.3036,,34.3048,34.3058,,34.3077,34.3063,0.2991,,0.3789,0.4013,0.3016,,0.3718,0.3981,0.3997,13.006,16.0953,16.8405,13.114,19.1750,16.7201,16.7803,0.0350,,,,0.5919,,0.0000,,26.9633,,26.9651,,,,,,,,,,,6.3046,6.3047,0.7928,115.666,4.344,4.380,,,,,,,,,,,,
CalCOFI,2105SH,044,,2105_044u,13-May-2021 20:36:26,13-May-2021 12:36:26,33.74198,-120.41198,083.3 055.0,083.3,055.0,494.000,498.138,,6.3588,,6.3515,,6.3552,34.3046,,34.3058,34.3064,,34.3083,34.3071,0.2974,,0.3771,0.3995,0.3028,,0.3730,0.3993,0.3994,12.934,16.0200,16.7653,13.166,19.0973,16.7737,16.7695,0.0361,,,,0.5921,,0.0000,,26.9628,,26.9652,,,,,,,,,,,6.3141,6.3068,0.7928,115.702,4.321,4.398,,,,,,,,,,,,
CalCOFI,2105SH,044,,2105_044u,13-May-2021 20:36:26,13-May-2021 12:36:26,33.74198,-120.41198,083.3 055.0,083.3,055.0,493.000,497.128,,6.3613,,6.3463,,6.3538,34.3033,,34.3045,34.3076,,34.3095,34.3070,0.2990,,0.3788,0.4012,0.3097,,0.3802,0.4064,0.4038,13.001,16.0900,16.8353,13.467,19.1696,17.0838,16.9596,0.0366,,,,0.5924,,0.0000,,26.9615,,26.9668,,,,,,,,,,,6.3167,6.3017,0.7928,115.819,4.344,4.498,,,,,,,,,,,,
CalCOFI,2105SH,044,,2105_044u,13-May-2021 20:36:27,13-May-2021 12:36:27,33.74198,-120.41198,083.3 055.0,083.3,055.0,492.000,496.119,,6.3878,,6.3696,,6.3787,34.3015,,34.3027,34.3060,,34.3079,34.3053,0.3036,,0.3836,0.4060,0.3089,,0.3794,0.4056,0.4058,13.202,16.3002,17.0451,13.431,19.3867,17.0468,17.0460,0.0361,,,,0.5926,,0.0000,,26.9566,,26.9625,,,,,,,,,,,6.3431,6.3250,0.7928,116.290,4.413,4.488,,,,,,,,,,,,
CalCOFI,2105SH,044,,2105_044u,13-May-2021 20:36:28,13-May-2021 12:36:28,33.74198,-120.41198,083.3 055.0,083.3,055.0,491.000,495.109,,6.3926,,6.3874,,6.3900,34.3022,,34.3034,34.3039,,34.3058,34.3046,0.3036,,0.3836,0.4060,0.3127,,0.3833,0.4095,0.4078,13.201,16.2991,17.0441,13.600,19.3856,17.2209,17.1325,0.0363,,,,0.5930,,0.0000,,26.9565,,26.9585,,,,,,,,,,,6.3481,6.3429,0.7928,116.293,4.414,4.547,,,,,,,,,,,,
CalCOFI,2105SH,044,,2105_044u,13-May-2021 20:36:29,13-May-2021 12:36:29,33.74196,-120.41198,083.3 055.0,083.3,055.0,490.000,494.100,,6.3949,,6.3913,,6.3931,34.3024,,34.3036,34.3036,,34.3055,34.3046,0.3075,,0.3877,0.4101,0.3101,,0.3806,0.4069,0.4085,13.373,16.4789,17.2236,13.487,19.5714,17.1045,17.1641,0.0359,,,,0.5934,,0.0000,,26.9563,,26.9578,,,,,,,,,,,6.3504,6.3469,0.7928,116.296,4.471,4.509,,,,,,,,,,,,
CalCOFI,2105SH,044,,2105_044u,13-May-2021 20:36:30,13-May-2021 12:36:30,33.74196,-120.41198,083.3 055.0,083.3,055.0,489.000,493.090,,6.3866,,6.3888,,6.3877,34.3034,,34.3046,34.3038,,34.3057,34.3052,0.3023,,0.3822,0.4047,0.3072,,0.3776,0.4039,0.4043,13.149,16.2448,16.9898,13.357,19.3295,16.9705,16.9802,0.0361,,,,0.5938,,0.0000,,26.9582,,26.9583,,,,,,,,,,,6.3423,6.3444,0.7928,116.095,4.395,4.466,,,,,,,,,,,,
CalCOFI,2105SH,044,,2105_044u,13-May-2021 20:36:31,13-May-2021 12:36:31,33.74196,-120.41198,083.3 055.0,083.3,055.0,488.000,492.081,,6.3890,,6.3910,,6.3900,34.3020,,34.3032,34.3031,,34.3050,34.3041,0.3023,,0.3822,0.4047,0.3071,,0.3775,0.4038,0.4043,13.146,16.2416,16.9867,13.355,19.3262,16.9684,16.9776,0.0362,,,,0.5942,,0.0000,,26.9568,,26.9574,,,,,,,,,,,6.3447,6.3467,0.7928,116.220,4.395,4.465,,,,,,,,,,,,
CalCOFI,2105SH,044,,2105_044u,13-May-2021 20:36:32,13-May-2021 12:36:32,33.74196,-120.41198,083.3 055.0,083.3,055.0,487.000,491.071,,6.3941,,6.3943,,6.3942,34.3019,,34.3031,34.3029,,34.3048,34.3040,0.3022,,0.3821,0.4045,0.3095,,0.3800,0.4062,0.4054,13.143,16.2385,16.9835,13.462,19.3230,17.0787,17.0311,0.0361,,,,0.5946,,0.0000,,26.9560,,26.9568,,,,,,,,,,,6.3499,6.3501,0.7928,116.280,4.394,4.501,,,,,,,,,,,,
CalCOFI,2105SH,044,,2105_044u,13-May-2021 20:36:33,13-May-2021 12:36:33,33.74196,-120.41198,083.3 055.0,083.3,055.0,486.000,490.062,,6.3966,,6.3963,,6.3965,34.3020,,34.3032,34.3025,,34.3044,34.3038,0.3022,,0.3821,0.4045,0.3181,,0.3889,0.4151,0.4098,13.140,16.2354,16.9804,13.834,19.3197,17.4620,17.2212,0.0366,,,,0.5949,,0.0000,,26.9557,,26.9562,,,,,,,,,,,6.3525,6.3522,0.7928,116.295,4.394,4.626,,,,,,,,,,,,
CalCOFI,2105SH,044,,2105_044u,13-May-2021 20:36:34,13-May-2021 12:36:34,33.74196,-120.41198,083.3 055.0,083.3,055.0,485.000,489.052,,6.3971,,6.3968,,6.3970,34.3018,,34.3030,34.3028,,34.3047,34.3039,0.3032,,0.3832,0.4056,0.3165,,0.3872,0.4134,0.4095,13.185,16.2824,17.0274,13.762,19.3683,17.3878,17.2076,0.0361,,,,0.5952,,0.0000,,26.9556,,26.9564,,,,,,,,,,,6.3531,6.3528,0.7928,116.299,4.409,4.602,,,,,,,,,,,,
CalCOFI,2105SH,044,,2105_044u,13-May-2021 20:36:35,13-May-2021 12:36:35,33.74196,-120.41198,083.3 055.0,083.3,055.0,484.000,488.042,,6.4010,,6.3986,,6.3998,34.3013,,34.3025,34.3026,,34.3045,34.3035,0.3089,,0.3891,0.4115,0.3114,,0.3819,0.4082,0.4099,13.434,16.5427,17.2873,13.540,19.6373,17.1591,17.2232,0.0358,,,,0.5954,,0.0000,,26.9546,,26.9560,,,,,,,,,,,6.3571,6.3546,0.7928,116.373,4.492,4.528,,,,,,,,,,,,
CalCOFI,2105SH,044,,2105_044u,13-May-2021 20:36:35,13-May-2021 12:36:35,33.74196,-120.41198,083.3 055.0,083.3,055.0,483.000,487.033,,6.4029,,6.4031,,6.4030,34.3013,,34.3025,34.3021,,34.3040,34.3033,0.3120,,0.3924,0.4148,0.3113,,0.3818,0.4081,0.4115,13.570,16.6849,17.4293,13.539,19.7841,17.1580,17.2937,0.0363,,,,0.5957,,0.0000,,26.9544,,26.9550,,,,,,,,,,,6.3591,6.3592,0.7928,116.387,4.538,4.528,,,,,,,,,,,,
CalCOFI,2105SH,044,,2105_044u,13-May-2021 20:36:36,13-May-2021 12:36:36,33.74194,-120.41198,083.3 055.0,083.3,055.0,482.000,486.023,,6.4038,,6.4023,,6.4031,34.3013,,34.3025,34.3022,,34.3041,34.3033,0.3072,,0.3874,0.4098,0.3113,,0.3818,0.4081,0.4090,13.357,16.4622,17.2069,13.538,19.5541,17.1570,17.1820,0.0362,,,,0.5960,,0.0000,,26.9542,,26.9551,,,,,,,,,,,6.3600,6.3586,0.7928,116.388,4.467,4.527,,,,,,,,,,,,
CalCOFI,2105SH,044,,2105_044u,13-May-2021 20:36:37,13-May-2021 12:36:37,33.74196,-120.41198,083.3 055.0,083.3,055.0,481.000,485.014,,6.4032,,6.4006,,6.4019,34.3013,,34.3025,34.3023,,34.3042,34.3034,0.3064,,0.3865,0.4089,0.3113,,0.3818,0.4081,0.4085,13.323,16.4267,17.1714,13.537,19.5174,17.1560,17.1637,0.0359,,,,0.5962,,0.0000,,26.9543,,26.9555,,,,,,,,,,,6.3595,6.3569,0.7928,116.362,4.455,4.527,,,,,,,,,,,,
CalCOFI,2105SH,044,,2105_044u,13-May-2021 20:36:38,13-May-2021 12:36:38,33.74194,-120.41198,083.3 055.0,083.3,055.0,480.000,484.004,,6.4070,,6.4042,,6.4056,34.3009,,34.3021,34.3021,,34.3040,34.3031,0.3063,,0.3864,0.4088,0.3133,,0.3839,0.4102,0.4095,13.320,16.4235,17.1683,13.626,19.5141,17.2477,17.2080,0.0358,,,,0.5965,,0.0000,,26.9535,,26.9548,,,,,,,,,,,6.3634,6.3606,0.7928,116.432,4.455,4.557,,,,,,,,,,,,
CalCOFI,2105SH,044,,2105_044u,13-May-2021 20:36:39,13-May-2021 12:36:39,33.74194,-120.41198,083.3 055.0,083.3,055.0,479.000,482.995,,6.4088,,6.4082,,6.4085,34.3009,,34.3021,34.3015,,34.3034,34.3028,0.3062,,0.3863,0.4087,0.3193,,0.3901,0.4163,0.4125,13.318,16.4214,17.1662,13.887,19.5120,17.5166,17.3414,0.0360,,,,0.5969,,0.0000,,26.9532,,26.9538,,,,,,,,,,,6.3654,6.3647,0.7928,116.440,4.454,4.644,,,,,,,,,,,,
CalCOFI,2105SH,044,,2105_044u,13-May-2021 20:36:40,13-May-2021 12:36:40,33.74194,-120.41200,083.3 055.0,083.3,055.0,478.000,481.985,,6.4061,,6.4064,,6.4063,34.3011,,34.3023,34.3019,,34.3038,34.3031,0.3087,,0.3889,0.4113,0.3186,,0.3894,0.4156,0.4135,13.424,16.5322,17.2769,13.857,19.6265,17.4857,17.3813,0.0366,,,,0.5972,,0.0000,,26.9538,,26.9543,,,,,,,,,,,6.3627,6.3630,0.7928,116.373,4.490,4.635,,,,,,,,,,,,
CalCOFI,2105SH,044,,2105_044u,13-May-2021 20:36:41,13-May-2021 12:36:41,33.74194,-120.41200,083.3 055.0,083.3,055.0,477.000,480.976,,6.4070,,6.4077,,6.4074,34.3009,,34.3021,34.3013,,34.3032,34.3027,0.3155,,0.3960,0.4184,0.3195,,0.3903,0.4165,0.4175,13.722,16.8438,17.5880,13.896,19.9483,17.5259,17.5570,0.0361,,,,0.5975,,0.0000,,26.9534,,26.9537,,,,,,,,,,,6.3637,6.3644,0.7928,116.391,4.589,4.648,,,,,,,,,,,,
CalCOFI,2105SH,044,,2105_044u,13-May-2021 20:36:41,13-May-2021 12:36:41,33.74194,-120.41200,083.3 055.0,083.3,055.0,476.000,479.966,,6.4093,,6.4135,,6.4114,34.3003,,34.3015,34.3000,,34.3019,34.3017,0.3162,,0.3968,0.4192,0.3281,,0.3992,0.4254,0.4223,13.749,16.8720,17.6162,14.267,19.9775,17.9081,17.7622,0.0364,,,,0.5978,,0.0000,,26.9527,,26.9518,,,,,,,,,,,6.3661,6.3703,0.7928,116.450,4.599,4.772,,,,,,,,,,,,
CalCOFI,2105SH,044,,2105_044u,13-May-2021 20:36:42,13-May-2021 12:36:42,33.74194,-120.41200,083.3 055.0,083.3,055.0,475.000,478.957,,6.4185,,6.4129,,6.4157,34.2997,,34.3009,34.3013,,34.3032,34.3021,0.3205,,0.4013,0.4237,0.3326,,0.4039,0.4300,0.4269,13.936,17.0675,17.8114,14.464,20.1794,18.1111,17.9613,0.0356,,,,0.5981,,0.0000,,26.9510,,26.9530,,,,,,,,,,,6.3754,6.3698,0.7928,116.602,4.662,4.838,,,,,,,,,,,,
CalCOFI,2105SH,044,,2105_044u,13-May-2021 20:36:43,13-May-2021 12:36:43,33.74194,-120.41200,083.3 055.0,083.3,055.0,474.000,477.947,,6.4353,,6.4391,,6.4372,34.2971,,34.2983,34.2997,,34.3016,34.3000,0.3266,,0.4077,0.4300,0.3295,,0.4007,0.4268,0.4284,14.205,17.3487,18.0922,14.329,20.4699,17.9720,18.0321,0.0353,,,,0.5984,,0.0000,,26.9467,,26.9482,,,,,,,,,,,6.3922,6.3960,0.7928,117.009,4.754,4.796,,,,,,,,,,,,
CalCOFI,2105SH,044,,2105_044u,13-May-2021 20:36:44,13-May-2021 12:36:44,33.74194,-120.41200,083.3 055.0,083.3,055.0,473.000,476.938,,6.4474,,6.4455,,6.4465,34.2974,,34.2986,34.2988,,34.3007,34.2997,0.3238,,0.4047,0.4271,0.3306,,0.4018,0.4280,0.4276,14.080,17.2180,17.9617,14.379,20.3349,18.0235,17.9926,0.0358,,,,0.5988,,0.0000,,26.9454,,26.9467,,,,,,,,,,,6.4043,6.4024,0.7928,117.137,4.713,4.813,,,,,,,,,,,,
CalCOFI,2105SH,044,,2105_044u,13-May-2021 20:36:45,13-May-2021 12:36:45,33.74194,-120.41200,083.3 055.0,083.3,055.0,472.000,475.928,,6.4450,,6.4456,,6.4453,34.2985,,34.2997,34.2988,,34.3007,34.3002,0.3212,,0.4020,0.4244,0.3321,,0.4034,0.4295,0.4270,13.967,17.0999,17.8437,14.444,20.2129,18.0905,17.9671,0.0366,,,,0.5992,,0.0000,,26.9465,,26.9467,,,,,,,,,,,6.4021,6.4027,0.7928,117.011,4.675,4.835,,,,,,,,,,,,
CalCOFI,2105SH,044,,2105_044u,13-May-2021 20:36:46,13-May-2021 12:36:46,33.74194,-120.41200,083.3 055.0,083.3,055.0,471.000,474.919,,6.4419,,6.4428,,6.4424,34.2982,,34.2994,34.2991,,34.3010,34.3002,0.3286,,0.4097,0.4321,0.3288,,0.4000,0.4261,0.4291,14.291,17.4386,18.1820,14.300,20.5628,17.9421,18.0621,0.0362,,,,0.5997,,0.0000,,26.9467,,26.9473,,,,,,,,,,,6.3990,6.4000,0.7928,116.972,4.783,4.787,,,,,,,,,,,,
CalCOFI,2105SH,044,,2105_044u,13-May-2021 20:36:47,13-May-2021 12:36:47,33.74194,-120.41200,083.3 055.0,083.3,055.0,470.000,473.909,,6.4473,,6.4440,,6.4457,34.2976,,34.2988,34.2989,,34.3008,34.2998,0.3256,,0.4066,0.4290,0.3317,,0.4030,0.4291,0.4291,14.159,17.3006,18.0442,14.426,20.4203,18.0720,18.0581,0.0357,,,,0.6001,,0.0000,,26.9455,,26.9470,,,,,,,,,,,6.4045,6.4013,0.7928,117.080,4.739,4.829,,,,,,,,,,,,
CalCOFI,2105SH,044,,2105_044u,13-May-2021 20:36:48,13-May-2021 12:36:48,33.74194,-120.41200,083.3 055.0,083.3,055.0,469.000,472.900,,6.4491,,6.4505,,6.4498,34.2977,,34.2989,34.2988,,34.3007,34.2998,0.3252,,0.4062,0.4286,0.3379,,0.4094,0.4355,0.4321,14.144,17.2849,18.0285,14.693,20.4041,18.3471,18.1878,0.0351,,,,0.6006,,0.0000,,26.9453,,26.9460,,,,,,,,,,,6.4064,6.4078,0.7928,117.082,4.735,4.919,,,,,,,,,,,,
CalCOFI,2105SH,044,,2105_044u,13-May-2021 20:36:49,13-May-2021 12:36:49,33.74194,-120.41200,083.3 055.0,083.3,055.0,468.000,471.890,,6.4557,,6.4481,,6.4519,34.2974,,34.2986,34.2986,,34.3005,34.2996,0.3323,,0.4136,0.4360,0.3316,,0.4029,0.4290,0.4325,14.452,17.6069,18.3501,14.422,20.7367,18.0678,18.2090,0.0360,,,,0.6012,,0.0000,,26.9442,,26.9462,,,,,,,,,,,6.4131,6.4055,0.7928,117.177,4.839,4.828,,,,,,,,,,,,
CalCOFI,2105SH,044,,2105_044u,13-May-2021 20:36:50,13-May-2021 12:36:50,33.74194,-120.41199,083.3 055.0,083.3,055.0,467.000,470.881,,6.4666,,6.4537,,6.4602,34.2964,,34.2976,34.2989,,34.3008,34.2992,0.3286,,0.4097,0.4321,0.3315,,0.4028,0.4289,0.4305,14.292,17.4397,18.1830,14.418,20.5639,18.0637,18.1234,0.0355,,,,0.6017,,0.0000,,26.9420,,26.9457,,,,,,,,,,,6.4241,6.4112,0.7928,117.384,4.786,4.827,,,,,,,,,,,,
CalCOFI,2105SH,044,,2105_044u,13-May-2021 20:36:51,13-May-2021 12:36:51,33.74194,-120.41200,083.3 055.0,083.3,055.0,466.000,469.872,,6.4750,,6.4611,,6.4681,34.2963,,34.2975,34.2974,,34.2993,34.2984,0.3277,,0.4088,0.4312,0.3376,,0.4091,0.4352,0.4332,14.253,17.3989,18.1423,14.680,20.5218,18.3337,18.2380,0.0356,,,,0.6022,,0.0000,,26.9408,,26.9435,,,,,,,,,,,6.4325,6.4186,0.7928,117.491,4.774,4.916,,,,,,,,,,,,
CalCOFI,2105SH,044,,2105_044u,13-May-2021 20:36:52,13-May-2021 12:36:52,33.74194,-120.41200,083.3 055.0,083.3,055.0,465.000,468.862,,6.4806,,6.4697,,6.4752,34.2959,,34.2971,34.2978,,34.2997,34.2984,0.3288,,0.4100,0.4323,0.3430,,0.4147,0.4407,0.4365,14.297,17.4449,18.1883,14.915,20.5693,18.5758,18.3821,0.0355,,,,0.6025,,0.0000,,26.9397,,26.9427,,,,,,,,,,,6.4381,6.4273,0.7928,117.580,4.790,4.995,,,,,,,,,,,,
CalCOFI,2105SH,044,,2105_044u,13-May-2021 20:36:53,13-May-2021 12:36:53,33.74194,-120.41200,083.3 055.0,083.3,055.0,464.000,467.853,,6.4837,,6.4752,,6.4795,34.2954,,34.2966,34.2986,,34.3005,34.2986,0.3341,,0.4155,0.4379,0.3405,,0.4121,0.4381,0.4380,14.529,17.6874,18.4305,14.807,20.8199,18.4645,18.4475,0.0361,,,,0.6028,,0.0000,,26.9390,,26.9425,,,,,,,,,,,6.4413,6.4329,0.7928,117.643,4.868,4.960,,,,,,,,,,,,
CalCOFI,2105SH,044,,2105_044u,13-May-2021 20:36:53,13-May-2021 12:36:53,33.74194,-120.41200,083.3 055.0,083.3,055.0,463.000,466.843,,6.4889,,6.4860,,6.4875,34.2942,,34.2954,34.2977,,34.2996,34.2975,0.3383,,0.4199,0.4423,0.3458,,0.4176,0.4436,0.4430,14.713,17.8798,18.6225,15.040,21.0186,18.7046,18.6636,0.0360,,,,0.6031,,0.0000,,26.9373,,26.9405,,,,,,,,,,,6.4466,6.4437,0.7928,117.793,4.930,5.039,,,,,,,,,,,,
CalCOFI,2105SH,044,,2105_044u,13-May-2021 20:36:54,13-May-2021 12:36:54,33.74194,-120.41200,083.3 055.0,083.3,055.0,462.000,465.834,,6.4981,,6.4934,,6.4958,34.2955,,34.2967,34.2972,,34.2991,34.2979,0.3327,,0.4140,0.4364,0.3456,,0.4174,0.4434,0.4399,14.469,17.6247,18.3678,15.028,20.7551,18.6923,18.5301,0.0363,,,,0.6034,,0.0000,,26.9371,,26.9390,,,,,,,,,,,6.4559,6.4513,0.7928,117.801,4.849,5.036,,,,,,,,,,,,
CalCOFI,2105SH,044,,2105_044u,13-May-2021 20:36:55,13-May-2021 12:36:55,33.74194,-120.41200,083.3 055.0,083.3,055.0,461.000,464.824,,6.4987,,6.5029,,6.5008,34.2963,,34.2975,34.2967,,34.2986,34.2981,0.3318,,0.4131,0.4355,0.3397,,0.4113,0.4373,0.4364,14.429,17.5829,18.3261,14.773,20.7119,18.4295,18.3778,0.0358,,,,0.6037,,0.0000,,26.9376,,26.9374,,,,,,,,,,,6.4565,6.4608,0.7928,117.743,4.836,4.951,,,,,,,,,,,,
CalCOFI,2105SH,044,,2105_044u,13-May-2021 20:36:56,13-May-2021 12:36:56,33.74193,-120.41200,083.3 055.0,083.3,055.0,460.000,463.815,,6.5035,,6.5019,,6.5027,34.2955,,34.2967,34.2966,,34.2985,34.2976,0.3378,,0.4194,0.4417,0.3395,,0.4111,0.4371,0.4394,14.692,17.8578,18.6006,14.765,20.9959,18.4213,18.5110,0.0364,,,,0.6042,,0.0000,,26.9364,,26.9374,,,,,,,,,,,6.4615,6.4599,0.7928,117.851,4.924,4.949,,,,,,,,,,,,
CalCOFI,2105SH,044,,2105_044u,13-May-2021 20:36:58,13-May-2021 12:36:58,33.74192,-120.41200,083.3 055.0,083.3,055.0,459.000,462.806,,6.5103,,6.5094,,6.5099,34.2952,,34.2964,34.2961,,34.2980,34.2972,0.3389,,0.4205,0.4429,0.3425,,0.4142,0.4402,0.4416,14.736,17.9038,18.6466,14.896,21.0434,18.5562,18.6014,0.0360,,,,0.6046,,0.0000,,26.9352,,26.9361,,,,,,,,,,,6.4684,6.4674,0.7928,117.951,4.940,4.993,,,,,,,,,,,,
CalCOFI,2105SH,044,,2105_044u,13-May-2021 20:36:59,13-May-2021 12:36:59,33.74192,-120.41202,083.3 055.0,083.3,055.0,458.000,461.796,,6.5083,,6.5072,,6.5078,34.2954,,34.2966,34.2962,,34.2981,34.2974,0.3363,,0.4178,0.4402,0.3467,,0.4185,0.4445,0.4424,14.625,17.7878,18.5307,15.076,20.9236,18.7417,18.6362,0.0352,,,,0.6050,,0.0000,,26.9356,,26.9364,,,,,,,,,,,6.4665,6.4653,0.7928,117.898,4.902,5.054,,,,,,,,,,,,
CalCOFI,2105SH,044,,2105_044u,13-May-2021 20:37:00,13-May-2021 12:37:00,33.74192,-120.41202,083.3 055.0,083.3,055.0,457.000,460.787,,6.5131,,6.5074,,6.5103,34.2946,,34.2958,34.2960,,34.2979,34.2969,0.3363,,0.4178,0.4402,0.3465,,0.4183,0.4443,0.4423,14.624,17.7867,18.5296,15.071,20.9225,18.7366,18.6331,0.0357,,,,0.6053,,0.0000,,26.9343,,26.9362,,,,,,,,,,,6.4713,6.4657,0.7928,118.004,4.903,5.052,,,,,,,,,,,,
CalCOFI,2105SH,044,,2105_044u,13-May-2021 20:37:01,13-May-2021 12:37:01,33.74192,-120.41202,083.3 055.0,083.3,055.0,456.000,459.777,,6.5149,,6.5053,,6.5101,34.2945,,34.2957,34.2964,,34.2983,34.2970,0.3362,,0.4177,0.4401,0.3437,,0.4154,0.4414,0.4408,14.621,17.7836,18.5265,14.948,20.9192,18.6098,18.5682,0.0354,,,,0.6056,,0.0000,,26.9340,,26.9368,,,,,,,,,,,6.4732,6.4636,0.7928,118.019,4.902,5.011,,,,,,,,,,,,
CalCOFI,2105SH,044,,2105_044u,13-May-2021 20:37:01,13-May-2021 12:37:01,33.74192,-120.41202,083.3 055.0,083.3,055.0,455.000,458.768,,6.5166,,6.5129,,6.5148,34.2938,,34.2950,34.2955,,34.2974,34.2962,0.3377,,0.4193,0.4416,0.3435,,0.4152,0.4412,0.4414,14.688,17.8536,18.5964,14.938,20.9916,18.5995,18.5980,0.0355,,,,0.6058,,0.0000,,26.9332,,26.9350,,,,,,,,,,,6.4750,6.4713,0.7928,118.083,4.924,5.008,,,,,,,,,,,,
CalCOFI,2105SH,044,,2105_044u,13-May-2021 20:37:02,13-May-2021 12:37:02,33.74192,-120.41202,083.3 055.0,083.3,055.0,454.000,457.758,,6.5227,,6.5160,,6.5194,34.2938,,34.2950,34.2953,,34.2972,34.2961,0.3433,,0.4251,0.4475,0.3433,,0.4150,0.4410,0.4443,14.928,18.1045,18.8470,14.928,21.2508,18.5892,18.7181,0.0355,,,,0.6060,,0.0000,,26.9324,,26.9345,,,,,,,,,,,6.4812,6.4745,0.7928,118.153,5.005,5.005,,,,,,,,,,,,
CalCOFI,2105SH,044,,2105_044u,13-May-2021 20:37:03,13-May-2021 12:37:03,33.74192,-120.41202,083.3 055.0,083.3,055.0,453.000,456.749,,6.5269,,6.5264,,6.5267,34.2937,,34.2949,34.2943,,34.2962,34.2956,0.3458,,0.4277,0.4501,0.3452,,0.4170,0.4430,0.4466,15.037,18.2185,18.9608,15.011,21.3685,18.6747,18.8178,0.0354,,,,0.6062,,0.0000,,26.9318,,26.9323,,,,,,,,,,,6.4855,6.4850,0.7928,118.199,5.043,5.034,,,,,,,,,,,,